When you browse on this site, cookies collect data to enhance your experience and personalize the content and advertising you see.
Visit our Privacy Policy to learn more. By continuing to use the site, you agree to this use of cookies and data.
  • In Hungary
  • List of Countries
  • For 7 days
  • Water Temperature
  • Satellite Maps
  • Weather Map
  • News
  • Weather Widgets
  • user-avatar
    Login

    Hourly Weather Las Cruces

    Today, 21 February, Thursday

    Time Temperature Precipitation Wind Pressure Humidity
    00:00 +4°C° 0 mm 3 mps 651 mmHg 34%
    01:00 +4°C° 0 mm 3 mps 651 mmHg 37%
    02:00 +4°C° 0 mm 3 mps 651 mmHg 41%
    03:00 +3°C° 0 mm 3 mps 651 mmHg 43%
    04:00 +3°C° 0 mm 3 mps 651 mmHg 45%
    05:00 +4°C° 0 mm 2 mps 651 mmHg 48%
    06:00 +3°C° 0 mm 3 mps 651 mmHg 46%
    07:00 +4°C° 0 mm 3 mps 652 mmHg 44%
    08:00 +4°C° 0 mm 3 mps 652 mmHg 42%
    09:00 +6°C° 0 mm 5 mps 652 mmHg 35%
    10:00 +7°C° 0 mm 6 mps 653 mmHg 29%
    11:00 +7°C° 0 mm 8 mps 653 mmHg 22%
    12:00 +8°C° 0 mm 9 mps 653 mmHg 20%
    13:00 +10°C° 0 mm 9 mps 653 mmHg 19%
    14:00 +11°C° 0 mm 9 mps 652 mmHg 18%
    15:00 +11°C° 0 mm 10 mps 652 mmHg 19%
    16:00 +11°C° 0 mm 10 mps 652 mmHg 21%
    17:00 +11°C° 0 mm 10 mps 652 mmHg 23%
    18:00 +10°C° 0 mm 9 mps 653 mmHg 26%
    19:00 +8°C° 0 mm 9 mps 653 mmHg 28%
    20:00 +7°C° 0 mm 8 mps 653 mmHg 31%
    21:00 +7°C° 0 mm 8 mps 653 mmHg 35%
    22:00 +6°C° 0 mm 7 mps 653 mmHg 40%
    23:00 +6°C° 0 mm 7 mps 654 mmHg 44%

    Tomorrow, 22 February, Friday

    Time Temperature Precipitation Wind Pressure Humidity
    00:00 +5°C° 0 mm 6 mps 653 mmHg 45%
    01:00 +6°C° 0 mm 5 mps 653 mmHg 46%
    02:00 +5°C° 0 mm 4 mps 653 mmHg 46%
    03:00 +5°C° 0 mm 4 mps 653 mmHg 45%
    04:00 +5°C° 0 mm 4 mps 653 mmHg 44%
    05:00 +5°C° 0 mm 4 mps 652 mmHg 43%
    06:00 +5°C° 0 mm 5 mps 653 mmHg 41%
    07:00 +5°C° 0 mm 6 mps 653 mmHg 39%
    08:00 +6°C° 0 mm 7 mps 653 mmHg 38%
    09:00 +7°C° 0 mm 9 mps 653 mmHg 37%
    10:00 +9°C° 0 mm 10 mps 653 mmHg 35%
    11:00 +10°C° 0 mm 12 mps 654 mmHg 34%
    12:00 +10°C° 0.5 mm 12 mps 653 mmHg 37%
    13:00 +11°C° 0.5 mm 11 mps 652 mmHg 41%
    14:00 +11°C° 0.5 mm 11 mps 651 mmHg 44%
    15:00 +9°C° 0.7 mm 11 mps 651 mmHg 49%
    16:00 +7°C° 0.7 mm 11 mps 651 mmHg 54%
    17:00 +4°C° 0.7 mm 11 mps 651 mmHg 60%
    18:00 +3°C° 0.3 mm 10 mps 652 mmHg 60%
    19:00 +3°C° 0.3 mm 10 mps 653 mmHg 61%
    20:00 +2°C° 0.3 mm 9 mps 655 mmHg 61%
    21:00 +1°C° 0 mm 10 mps 655 mmHg 62%
    22:00 -1°C° 0 mm 11 mps 656 mmHg 63%
    23:00 -2°C° 0 mm 11 mps 656 mmHg 64%

    Day after tomorrow, 23 February, Saturday

    Time Temperature Precipitation Wind Pressure Humidity
    00:00 -2°C° 0 mm 11 mps 657 mmHg 64%
    01:00 -3°C° 0 mm 11 mps 657 mmHg 64%
    02:00 -3°C° 0 mm 10 mps 657 mmHg 65%
    03:00 -3°C° 0 mm 10 mps 658 mmHg 66%
    04:00 -4°C° 0 mm 10 mps 658 mmHg 68%
    05:00 -4°C° 0 mm 9 mps 658 mmHg 69%
    06:00 -4°C° 0 mm 9 mps 659 mmHg 67%
    07:00 -2°C° 0 mm 8 mps 660 mmHg 64%
    08:00 -2°C° 0 mm 8 mps 660 mmHg 61%
    09:00 0°C° 0 mm 7 mps 661 mmHg 53%
    10:00 +2°C° 0 mm 6 mps 661 mmHg 44%
    11:00 +5°C° 0 mm 5 mps 662 mmHg 36%
    12:00 +6°C° 0 mm 5 mps 661 mmHg 33%
    13:00 +7°C° 0 mm 4 mps 661 mmHg 29%
    14:00 +8°C° 0 mm 4 mps 661 mmHg 26%
    15:00 +8°C° 0 mm 4 mps 661 mmHg 26%
    16:00 +10°C° 0 mm 3 mps 661 mmHg 25%
    17:00 +10°C° 0 mm 3 mps 661 mmHg 25%
    18:00 +9°C° 0 mm 3 mps 661 mmHg 31%
    19:00 +8°C° 0 mm 2 mps 661 mmHg 36%
    20:00 +6°C° 0 mm 2 mps 662 mmHg 42%
    21:00 +7°C° 0 mm 1 mps 662 mmHg 45%
    22:00 +6°C° 0 mm 1 mps 662 mmHg 48%
    23:00 +4°C° 0 mm 0 mps 662 mmHg 51%

    24 February, Sunday

    Time Temperature Precipitation Wind Pressure Humidity
    00:00 +4°C° 0 mm 0 mps 662 mmHg 50%
    01:00 +5°C° 0 mm 1 mps 662 mmHg 49%
    02:00 +4°C° 0 mm 1 mps 661 mmHg 49%
    03:00 +4°C° 0 mm 1 mps 661 mmHg 48%
    04:00 +2°C° 0 mm 0 mps 661 mmHg 48%
    05:00 +2°C° 0 mm 0 mps 661 mmHg 47%
    06:00 +4°C° 0 mm 1 mps 661 mmHg 43%
    07:00 +5°C° 0 mm 1 mps 662 mmHg 39%
    08:00 +7°C° 0 mm 1 mps 663 mmHg 34%
    09:00 +8°C° 0 mm 1 mps 663 mmHg 30%
    10:00 +10°C° 0 mm 1 mps 663 mmHg 26%
    11:00 +10°C° 0 mm 2 mps 663 mmHg 21%
    12:00 +12°C° 0 mm 2 mps 662 mmHg 20%
    13:00 +13°C° 0 mm 2 mps 661 mmHg 18%
    14:00 +14°C° 0 mm 2 mps 661 mmHg 17%
    15:00 +15°C° 0 mm 2 mps 661 mmHg 17%
    16:00 +15°C° 0 mm 2 mps 660 mmHg 17%
    17:00 +15°C° 0 mm 2 mps 660 mmHg 17%
    18:00 +14°C° 0 mm 1 mps 660 mmHg 21%
    19:00 +12°C° 0 mm 1 mps 660 mmHg 25%
    20:00 +10°C° 0 mm 0 mps 660 mmHg 29%
    21:00 +9°C° 0 mm 0 mps 660 mmHg 29%
    22:00 +10°C° 0 mm 1 mps 660 mmHg 29%
    23:00 +10°C° 0 mm 1 mps 660 mmHg 29%

    25 February, Monday

    Time Temperature Precipitation Wind Pressure Humidity
    00:00 +9°C° 0 mm 1 mps 659 mmHg 29%
    01:00 +9°C° 0 mm 1 mps 659 mmHg 30%
    02:00 +8°C° 0 mm 1 mps 659 mmHg 30%
    03:00 +8°C° 0 mm 1 mps 659 mmHg 31%
    04:00 +7°C° 0 mm 1 mps 658 mmHg 32%
    05:00 +7°C° 0 mm 1 mps 658 mmHg 33%
    06:00 +8°C° 0 mm 1 mps 659 mmHg 33%
    07:00 +9°C° 0 mm 1 mps 659 mmHg 32%
    08:00 +9°C° 0 mm 0 mps 660 mmHg 32%
    09:00 +11°C° 0 mm 1 mps 660 mmHg 28%
    10:00 +13°C° 0 mm 1 mps 660 mmHg 24%
    11:00 +15°C° 0 mm 1 mps 661 mmHg 20%
    12:00 +16°C° 0 mm 2 mps 660 mmHg 19%
    13:00 +17°C° 0 mm 2 mps 660 mmHg 18%
    14:00 +18°C° 0 mm 3 mps 660 mmHg 17%
    15:00 +18°C° 0 mm 3 mps 659 mmHg 16%
    16:00 +18°C° 0 mm 3 mps 659 mmHg 16%
    17:00 +18°C° 0 mm 3 mps 659 mmHg 15%
    18:00 +17°C° 0 mm 3 mps 659 mmHg 18%
    19:00 +15°C° 0 mm 2 mps 659 mmHg 21%
    20:00 +14°C° 0 mm 1 mps 659 mmHg 24%
    21:00 +13°C° 0 mm 1 mps 659 mmHg 25%
    22:00 +12°C° 0 mm 1 mps 659 mmHg 26%
    23:00 +12°C° 0 mm 1 mps 659 mmHg 28%

    26 February, Tuesday

    Time Temperature Precipitation Wind Pressure Humidity
    00:00 +11°C° 0 mm 1 mps 659 mmHg 29%
    01:00 +10°C° 0 mm 1 mps 659 mmHg 30%
    02:00 +10°C° 0 mm 1 mps 658 mmHg 32%
    03:00 +10°C° 0 mm 1 mps 658 mmHg 33%
    04:00 +9°C° 0 mm 1 mps 658 mmHg 34%
    05:00 +9°C° 0 mm 1 mps 658 mmHg 35%
    06:00 +10°C° 0 mm 1 mps 659 mmHg 35%
    07:00 +11°C° 0 mm 1 mps 659 mmHg 34%
    08:00 +11°C° 0 mm 1 mps 660 mmHg 33%
    09:00 +13°C° 0 mm 2 mps 660 mmHg 29%
    10:00 +14°C° 0 mm 3 mps 661 mmHg 26%
    11:00 +17°C° 0 mm 4 mps 661 mmHg 22%
    12:00 +17°C° 0 mm 5 mps 661 mmHg 20%
    13:00 +19°C° 0 mm 5 mps 661 mmHg 18%
    14:00 +20°C° 0 mm 6 mps 661 mmHg 15%
    15:00 +20°C° 0 mm 6 mps 661 mmHg 16%
    16:00 +19°C° 0 mm 6 mps 661 mmHg 16%
    17:00 +18°C° 0 mm 7 mps 660 mmHg 17%
    18:00 +17°C° 0 mm 6 mps 661 mmHg 21%
    19:00 +15°C° 0 mm 5 mps 661 mmHg 25%
    20:00 +14°C° 0 mm 4 mps 661 mmHg 29%
    21:00 +13°C° 0 mm 4 mps 661 mmHg 31%
    22:00 +12°C° 0 mm 3 mps 661 mmHg 34%
    23:00 +12°C° 0 mm 2 mps 661 mmHg 36%
    Show more